AirNav   Pilot Hours Calculator
 
 531 users online  

T00 Chambers County Airport
Anahuac, Texas, USA

GOING TO ANAHUAC?


FAA INFORMATION EFFECTIVE 03 NOVEMBER 2022

Location

FAA Identifier: T00
Lat/Long: 29-46-11.3332N 094-39-48.5535W
29-46.188887N 094-39.809225W
29.7698148,-94.6634871
(estimated)
Elevation: 21.2 ft. / 6.5 m (surveyed)
Variation: 05E (1995)
From city: 1 mile E of ANAHUAC, TX
Time zone: UTC -6 (UTC -5 during Daylight Saving Time)
Zip code: 77514

Airport Operations

Airport use: Open to the public
Activation date: 10/1978
Control tower: no
ARTCC: HOUSTON CENTER
FSS: MONTGOMERY COUNTY FLIGHT SERVICE STATION
NOTAMs facility: CXO (NOTAM-D service available)
Attendance: MON-FRI 0800-1700
Wind indicator: lighted
Segmented circle: yes
Lights: DUSK-DAWN. MIRL RWY 12/30 PRESET LOW INTST; TO INCR INTST ACTVT - CTAF.
Beacon: white-green (lighted land airport)
Operates sunset to sunrise.

Airport Communications

CTAF: 122.9
HOUSTON APPROACH: 134.45 [0600-0000]
HOUSTON DEPARTURE: 134.45 [0600-0000]
BLTWY RNAV DP: 134.45
BLUEBELL STAR: 124.225
BORRN RNAV DP: 134.45
CESAN STAR: 121.3
DREMR DP: 134.45
HOODO RNAV DP: 134.45
HUDZY STAR: 120.05
INDIE RNAV DP: 134.45
KARRR RNAV DP: 134.45
LURIC DP: 134.45
MMALT RNAV DP: 134.45
OHIIO STAR: 120.05
PALACIOS DP: 134.45
STRYA DP: 134.45
STYCK DP: 134.45
TKNIQ STAR: 119.625
TSHIRT STAR: 119.175
WAPPL STAR: 120.05
WATFO DP: 134.45
WYLSN RNAV DP: 134.45
WX AWOS-3PT at T78 (19 nm N): 120.775 (936-587-4150)

Nearby radio navigation aids

VOR radial/distance  VOR name  Freq  Var
MHFr011/14.1TRINITY VOR/DME113.6007E
DASr177/25.2DAISETTA VORTAC116.9005E
VUHr014/31.9SCHOLES VOR/DME113.0006E
SBIr272/33.0SABINE PASS VOR/DME115.4007E
BPTr246/35.3BEAUMONT VOR/DME114.5007E
IAHr103/37.2HUMBLE VORTAC116.6005E

 
NDB name  Hdg/Dist  Freq  Var  ID
GOODHUE226/29.636807EGDE --. -.. .

Airport Services

Fuel available: 100LL JET-A JET-A1+
100LL:FUEL 24 HR SELF-SERVE.
Parking: tiedowns
Bottled oxygen: NONE
Bulk oxygen: NONE

Runway Information

Runway 12/30

Dimensions: 3005 x 60 ft. / 916 x 18 m
Surface: asphalt, in poor condition
EXTSV CRACKING.
Weight bearing capacity: 
Single wheel: 13.0
Runway edge lights: medium intensity
RUNWAY 12  RUNWAY 30
Latitude: 29-46.363987N29-46.053815N
Longitude: 094-39.966058W094-39.522763W
Elevation: 20.4 ft.20.4 ft.
Traffic pattern: leftright
Runway heading: 124 magnetic, 129 true304 magnetic, 309 true
Markings: nonprecision, in good conditionnonprecision, in good condition
Visual slope indicator: 2-light PAPI on left (4.00 degrees glide path)
Touchdown point: yes, no lightsyes, no lights
Obstructions: 45 ft. pole, 882 ft. from runway, 160 ft. left of centerline, 15:1 slope to clear15 ft. road, 530 ft. from runway, 280 ft. left of centerline, 22:1 slope to clear

Runway 17/35

Dimensions: 1900 x 300 ft. / 579 x 91 m
Surface: turf, in good condition
RUNWAY 17  RUNWAY 35
Latitude: 29-46.313965N29-46.000500N
Longitude: 094-39.911733W094-39.911733W
Elevation: 20.0 ft.20.0 ft.
Traffic pattern: leftright
Runway heading: 175 magnetic, 180 true355 magnetic, 000 true
Markings: none, in good conditionnone, in good condition
Touchdown point: yes, no lightsyes, no lights
Obstructions: 60 ft. trees, 890 ft. from runway, 90 ft. left of centerline, 14:1 slope to clear17 ft. road, 230 ft. from runway, 13:1 slope to clear

Airport Ownership and Management from official FAA records

Ownership: Publicly-owned
Owner: CHAMBERS COUNTY
PO BOX 938
ANAHUAC, TX 77514
Phone 409-267-2400
Manager: RONNIE BROWN
PO BOX 938
ANAHUAC, TX 77514
Phone 409-267-2719

Airport Operational Statistics

Aircraft based on the field: 9
Single engine airplanes: 8
Multi engine airplanes: 1
    
Aircraft operations: avg 46/week *
67% local general aviation
33% transient general aviation
* for 12-month period ending 23 April 2020

Additional Remarks

RWY 17/35 SOFT WHEN WET.
RWY 17, PAPI RWY 12 IN RWY 17 APCH, DO NOT LAND BFR XNG RWY 12.
FOR CD CTC HOUSTON APCH AT 281-443-5844 TO CNL IFR CALL 281-443-5888.

Instrument Procedures

NOTE: All procedures below are presented as PDF files. If you need a reader for these files, you should download the free Adobe Reader.

NOT FOR NAVIGATION. Please procure official charts for flight.
FAA instrument procedures published for use from 03 November 2022 at 0901Z to 01 December 2022 at 0900Z.

 
STARs - Standard Terminal Arrivals
BLUBELL FOUR   download (300KB)
CESAN FOUR (RNAV)   2 pages: [1] [2] (398KB)
HUDZY FOUR   2 pages: [1] [2] (330KB)
OHIIO FOUR   download (287KB)
TKNIQ THREE (RNAV)   2 pages: [1] [2] (329KB)
TSHRT TWO ARRIVAL **NEW**   2 pages: [1] [2] (373KB)
WAPPL SIX (RNAV)   2 pages: [1] [2] (376KB)
WAPPL SIX (RNAV), CONT.2   download (281KB)
 
IAPs - Instrument Approach Procedures
RNAV (GPS) RWY 12   download (197KB)
 
Departure Procedures
BLTWY SEVEN (RNAV)   download (154KB)
BORRN FOUR (RNAV)   2 pages: [1] [2] (295KB)
HOODO SEVEN (RNAV)   download (195KB)
INDIE EIGHT (RNAV)   download (181KB)
KARRR SIX (RNAV)   2 pages: [1] [2] (252KB)
LURIC EIGHT (RNAV)   download (201KB)
MMALT FIVE (RNAV)   download (206KB)
PALACIOS THREE **NEW**   2 pages: [1] [2] (302KB)
STRYA EIGHT (RNAV)   download (191KB)
STYCK EIGHT (RNAV)   download (179KB)
WATFO FIVE (RNAV)   download (159KB)
WYLSN EIGHT (RNAV)   download (164KB)
NOTE: Special Take-Off Minimums/Departure Procedures apply   download (70KB)

Other nearby airports with instrument procedures:

54T - RWJ Airpark (10 nm W)
KHPY - Baytown Airport (15 nm W)
T78 - Liberty Municipal Airport (19 nm N)
T41 - La Porte Municipal Airport (22 nm W)
KEFD - Ellington Airport (28 nm W)
 
Loc | Ops | Rwys | IFR | FBO | Links
Com | Nav | Svcs | Stats | Notes
Area around T00 (Chambers County Airport)
 
Road maps at: MapQuest Bing Google
 
Aerial photo
WARNING: Photo may not be current or correct
Aerial photo of T00 (Chambers County Airport)
Photo taken 04-Mar-2007
on final for runway 30

Do you have a better or more recent aerial photo of Chambers County Airport that you would like to share? If so, please send us your photo.

 
Sectional chart

 
Airport distance calculator
Flying to Chambers County Airport? Find the distance to fly.

From to T00

Sunrise and sunset
Times for 30-Nov-2022
 Local
(UTC-6)
 Zulu
(UTC)
Morning civil twilight06:3112:31
Sunrise06:5712:57
Sunset17:1823:18
Evening civil twilight17:4423:44

Current date and time
Zulu (UTC)  30-Nov-2022 11:44:58
Local (UTC-6)  30-Nov-2022 05:44:58
 
METAR
KT41 
22nm W 
301135Z AUTO 10SM BKN018 15/08 A3009 RMK AO2 T01520081
KEFD 
28nm W 
301054Z 32018KT 7SM OVC020 20/17 A3003
KBMT 
29nm NE 
301130Z AUTO 35013G21KT 10SM SCT015 OVC026 17/13 A3007 RMK AO2 T01660132
KGLS 
32nm S 
301052Z AUTO 31006KT 6SM BR OVC020 23/21 A3001 RMK AO2 SLP163 T02280206
KHOU 
33nm W 
301136Z 36015G25KT 10SM SCT016 14/07 A3009 RMK AO2 PK WND 35026/1101 T01440067
KLVJ 
34nm SW 
301053Z AUTO 35015G24KT 9SM OVC020 19/14 A3005 RMK AO2 PK WND 34028/1042 SLP175 T01890139
KBPT 
35nm E 
301053Z AUTO 32010KT 6SM BR FEW012 BKN023 22/20 A3000 RMK AO2 SLP159 T02170200
KIAH 
39nm W 
301053Z 35014KT 10SM SCT019 13/07 A3009 RMK AO2 PK WND 33027/0955 SLP189 T01280067
TAF
KEFD 
28nm W 
300900Z 3009/0110 20009KT 8000 BR SCT015 BKN020 QNH2986INS BECMG 3009/3010 VRB06KT 8000 BR OVC008 QNH2976INS BECMG 3010/3011 VRB06KT 8000 BR BKN012 QNH2976INS BECMG 3011/3012 01012KT 9999 NSW SKC QNH2980INS BECMG 3015/3016 02020G25KT 9999 SKC QNH2982INS BECMG 3023/3024 03009KT 9999 SKC QNH2999INS TX25/3020Z TN07/3010Z
KGLS 
32nm S 
300912Z 3009/0106 29006KT 4SM BR OVC011 TEMPO 3009/3011 2SM BR BKN005 FM301200 35021G28KT P6SM SCT015 BKN035 FM301600 01024G30KT P6SM SKC FM010300 04016KT P6SM FEW250
KHOU 
33nm W 
300912Z 3009/0106 30009KT P6SM OVC008 FM301030 36014G20KT P6SM SCT015 FM301400 01018G25KT P6SM FEW250 FM010200 03009KT P6SM FEW250
KBPT 
35nm E 
301022Z 3010/0106 30005KT 3SM BR OVC015 FM301300 35011G19KT P6SM SKC FM301600 02017G23KT P6SM SKC FM010000 03012KT P6SM BKN250
NOTAMs
Click for the latest NOTAMs
NOTAMs are issued by the DoD/FAA and will open in a separate window not controlled by AirNav.

 

 
 

FBO, Fuel Providers, and Aircraft Ground Support

  
 Business Name 
 
 Contact 
 
 Services / Description 
 
Fuel Prices
 
Comments
  
Chambers County Anahuac Airport 409-267-2719
no information available

If you are affiliated with Chambers County Anahuac Airport and would like to show here your services, contact info, web link, logo, and more, click here
100LL Jet A
SS $5.50 $4.75 
 Updated 26-Oct-2022
 
   write
SS=Self service
Update Fuel Prices
 

Would you like to see your business listed on this page?

 If your business provides an interesting product or service to pilots, flight crews, aircraft, or users of the Chambers County Airport, you should consider listing it here.  To start the listing process, click on the button below
 
Add a business
 

Other Pages about Chambers County Airport

www.co.chambers.tx.us/...
 
Update a link
 
Copyright © AirNav, LLC. All rights reserved. Privacy Policy  Contact